www.pogodaiklimat.ru

Погода и климат >> Архив погоды >> Австралия >> Северная территория >> Джервойс


ПОГОДА в Джервойсе

  • Прогноз погоды в Джервойсе
  • Монитор погоды в Джервойсе

АРХИВ ПОГОДЫ в Джервойсе

Время (UTC), дата Ветер
(напр.,м/с)
 
Видим.   Явления Облачность Т
(С)
Тd
(С)
f
(%)
Тe
(С)
Тes
(С)
Комфортность P
(гПа)
Po
(гПа)
Тmin
(С)
Tmax
(С)
R
(мм)
R24
(мм)
S
(см)
05 10.07 В 2 н/о н/о +23.5 -8.6 11 +21 +21 комфорт 1020.5 981.6
06 10.07 Ю 2 н/о н/о +24.4 -7.9 11 +22 +22 комфорт 1020.4 981.5
08 10.07 В 3 н/о н/о +22.5 -7.3 13 +21 +21 комфорт 1020.8 981.9
09 10.07 В 2 н/о н/о +16.5 -5.3 22 +17 +17 1021.5 982.5
11 10.07 штиль 0 н/о н/о +11.8 -4.3 32 +12 +12 1022.4 983.4
12 10.07 штиль 0 н/о н/о +10.3 -4.1 36 +10 +10 1022.8 983.8
14 10.07 штиль 0 н/о н/о +7.8 -3.7 44 +8 +8 1022.6 983.6 +24.9
15 10.07 В 2 н/о н/о +7.7 -3.8 44 +7 +7 1022.2 983.2
17 10.07 З 2 н/о н/о +10.4 -4.4 35 +10 +10 1021.9 982.9
18 10.07 З 3 н/о н/о +10.1 -5.0 34 +9 +9 1022.0 983.0
20 10.07 З 4 н/о н/о +10.4 -5.2 33 +9 +9 1022.9 983.9
21 10.07 З 3 н/о н/о +9.7 -4.6 36 +8 +8 1023.4 984.4
23 10.07 ЮЗ 3 н/о н/о +12.0 -3.4 34 +11 +11 1025.4 986.3
00 11.07 ЮЗ 3 н/о н/о +18.4 -2.5 24 +19 +19 1025.9 986.8
02 11.07 Ю 3 н/о н/о +22.7 -2.8 18 +21 +21 комфорт 1025.6 986.5 +6.8
03 11.07 ЮЗ 3 н/о н/о +24.2 -3.2 16 +22 +22 комфорт 1024.4 985.3
05 11.07 Ю 4 н/о н/о +24.9 -4.4 14 +23 +23 комфорт 1022.9 983.9
06 11.07 Ю 3 н/о н/о +24.7 -4.6 14 +23 +23 комфорт 1022.7 983.7
08 11.07 Ю 3 н/о н/о +22.8 -4.3 16 +21 +21 комфорт 1023.3 984.3
09 11.07 Ю 3 н/о н/о +19.1 -2.5 23 +19 +19 1023.9 984.8
11 11.07 Ю 3 н/о н/о +15.9 -1.6 30 +16 +16 1025.5 986.4
12 11.07 Ю 3 н/о н/о +14.2 -1.4 34 +14 +14 1025.7 986.6
14 11.07 Ю 2 н/о н/о +12.0 -1.2 40 +11 +11 1025.4 986.3 +25.5
15 11.07 Ю 2 н/о н/о +10.2 -1.2 45 +9 +9 1025.3 986.2
17 11.07 ЮЗ 3 н/о н/о +7.6 -1.4 53 +6 +6 1024.8 985.7
18 11.07 ЮЗ 2 н/о н/о +7.6 -1.4 53 +6 +6 1024.9 985.8
20 11.07 ЮЗ 2 н/о н/о +5.1 -1.1 64 +3 +3 1024.8 985.7
21 11.07 З 2 н/о н/о +5.8 -0.3 65 +4 +4 1025.5 986.4
23 11.07 З 3 н/о н/о +10.2 +0.5 51 +9 +9 1026.7 987.5
00 12.07 ЮЗ 2 н/о н/о +15.5 +0.5 36 +16 +16 1026.9 987.7
02 12.07 ЮВ 4 н/о н/о +20.3 +0.7 27 +21 +21 комфорт 1026.0 986.9 +4.7
03 12.07 Ю 4 н/о н/о +21.8 +1.5 26 +21 +21 комфорт 1024.8 985.7
05 12.07 Ю 5 н/о н/о +22.0 +0.5 24 +21 +21 комфорт 1022.6 983.6
06 12.07 Ю 4 н/о н/о +22.5 +0.4 23 +22 +22 комфорт 1022.4 983.4
08 12.07 Ю 4 н/о н/о +20.9 -0.4 24 +21 +21 комфорт 1022.4 983.4
09 12.07 ЮВ 2 н/о н/о +17.5 +0.2 31 +18 +18 1022.8 983.8
11 12.07 ЮВ 2 н/о н/о +13.3 +0.7 42 +13 +13 1024.5 985.4
12 12.07 Ю 2 н/о н/о +11.5 +1.5 50 +11 +11 1025.0 985.9
14 12.07 Ю 2 н/о н/о +10.0 +0.3 51 +9 +9 1025.4 986.3 +23.1
15 12.07 Ю 2 н/о н/о +10.7 +1.5 53 +10 +10 1025.3 986.2
17 12.07 Ю 3 н/о н/о +7.3 +0.7 63 +5 +5 1025.0 985.9
18 12.07 Ю 3 н/о н/о +7.7 +2.6 70 +5 +5 1025.2 986.1
20 12.07 ЮЗ 3 н/о н/о +7.2 +2.5 72 +5 +5 1025.7 986.6
21 12.07 ЮЗ 2 н/о н/о +6.8 +2.7 75 +5 +5 1026.7 987.5
23 12.07 Ю 4 н/о н/о +11.9 +3.7 57 +10 +10 1028.2 989.0
00 13.07 Ю 6 н/о н/о +15.2 +3.7 46 +14 +14 1029.0 989.7
02 13.07 ЮВ 8 н/о н/о +17.5 +4.1 41 +16 +16 1028.5 989.3 +6.1
03 13.07 ЮВ 8 н/о н/о +18.3 +4.5 40 +18 +18 1027.5 988.3
05 13.07 Ю 8 н/о н/о +19.1 +3.3 35 +19 +19 1025.4 986.3
06 13.07 Ю 7 н/о н/о +19.2 +2.6 33 +19 +19 1025.2 986.1
08 13.07 Ю 6 н/о н/о +17.2 +2.8 38 +16 +16 1025.9 986.8
09 13.07 Ю 5 н/о н/о +15.5 +2.3 41 +15 +15 1026.8 987.6
11 13.07 Ю 4 н/о н/о +13.0 +3.7 53 +11 +11 1028.1 988.9
12 13.07 Ю 5 н/о н/о +12.3 +3.0 53 +10 +10 1028.7 989.5
14 13.07 ЮВ 5 н/о н/о +10.6 +2.4 57 +8 +8 1029.2 989.9 +19.9
15 13.07 ЮВ 5 н/о н/о +10.0 +1.6 56 +7 +7 1029.2 989.9
17 13.07 Ю 4 н/о н/о +7.8 +1.0 62 +5 +5 1028.6 989.4
18 13.07 Ю 4 н/о н/о +7.3 +0.7 63 +4 +4 1028.3 989.1
20 13.07 Ю 3 н/о н/о +5.7 +0.1 67 +3 +3 1028.6 989.4
21 13.07 Ю 3 н/о н/о +4.7 -0.1 71 +2 +2 1029.3 990.0
23 13.07 ЮВ 4 н/о н/о +7.7 -0.5 56 +5 +5 1030.9 991.6
00 14.07 ЮВ 6 н/о н/о +11.0 -1.4 42 +8 +8 1031.5 992.1
02 14.07 ЮВ 7 н/о н/о +13.8 -2.6 32 +12 +12 1030.5 991.2 +3.7
03 14.07 ЮВ 7 н/о н/о +14.8 -4.0 27 +13 +13 1029.5 990.2
05 14.07 ЮВ 7 н/о н/о +16.1 -5.6 22 +15 +15 1027.4 988.2
06 14.07 ЮВ 6 н/о н/о +16.2 -4.9 23 +15 +15 1026.8 987.6
08 14.07 ЮВ 6 н/о н/о +15.1 -5.3 24 +14 +14 1027.0 987.8
09 14.07 ЮВ 4 н/о н/о +13.2 -5.4 27 +12 +12 1027.5 988.3
11 14.07 Ю 3 н/о н/о +10.3 -4.1 36 +9 +9 1028.7 989.5
12 14.07 Ю 4 н/о н/о +9.6 -3.3 40 +8 +8 1029.0 989.7
14 14.07 Ю 5 н/о н/о +9.1 -2.2 45 +6 +6 1029.2 989.9 +17.1
15 14.07 Ю 5 н/о н/о +8.6 -1.8 48 +6 +6 1028.9 989.6
17 14.07 Ю 4 н/о н/о +6.9 -1.3 56 +4 +4 1028.5 989.3
18 14.07 Ю 4 н/о н/о +6.7 -0.7 59 +4 +4 1028.4 989.2
20 14.07 Ю 3 н/о н/о +5.4 -0.4 66 +2 +2 1028.9 989.6
21 14.07 Ю 3 н/о н/о +4.5 -0.1 72 +1 +1 1029.2 989.9
23 14.07 ЮВ 4 н/о н/о +7.6 +0.1 59 +5 +5 1030.1 990.8
00 15.07 ЮВ 6 н/о н/о +11.1 -0.4 45 +9 +9 1030.4 991.1
02 15.07 ЮВ 7 н/о н/о +14.1 -1.5 34 +12 +12 1029.3 990.0 +4.1
03 15.07 ЮВ 6 н/о н/о +14.9 -2.5 30 +14 +14 1028.0 988.8
05 15.07 ЮВ 6 н/о н/о +18.1 -2.2 25 +18 +18 1025.8 986.7
06 15.07 ЮВ 6 н/о н/о +18.0 -2.3 25 +17 +17 1025.3 986.2
08 15.07 ЮВ 6 н/о н/о +16.9 -1.7 28 +16 +16 1025.6 986.5
09 15.07 ЮВ 4 н/о н/о +15.3 -0.9 33 +14 +14 1025.8 986.7
11 15.07 Ю 3 н/о н/о +11.5 0.0 45 +10 +10 1026.7 987.5
12 15.07 Ю 3 н/о н/о +10.6 +0.1 48 +9 +9 1027.2 988.0
14 15.07 ЮВ 4 н/о н/о +8.9 +0.1 54 +7 +7 1027.0 987.8 +18.5
15 15.07 Ю 3 н/о н/о +8.6 +1.3 60 +6 +6 1027.1 987.9
17 15.07 Ю 3 н/о н/о +6.2 +1.7 73 +4 +4 1027.0 987.8
18 15.07 Ю 3 н/о н/о +6.2 +2.1 75 +4 +4 1026.7 987.5
20 15.07 Ю 3 н/о н/о +3.8 +1.5 85 0 0 1026.5 987.3
21 15.07 Ю 2 н/о н/о +2.8 +1.2 89 -0 -0 1026.9 987.7
23 15.07 Ю 4 н/о н/о +7.9 +3.2 72 +5 +5 1027.7 988.5
00 16.07 Ю 5 н/о н/о +11.2 +3.5 59 +9 +9 1027.9 988.7
02 16.07 В 7 н/о н/о +14.9 +4.0 48 +13 +13 1027.0 987.8 +2.8
03 16.07 ЮВ 6 н/о н/о +16.5 +4.2 44 +16 +16 1025.8 986.7
05 16.07 ЮВ 6 н/о н/о +18.0 +3.9 39 +17 +17 1023.9 984.8
06 16.07 ЮВ 5 н/о н/о +18.8 +3.8 37 +19 +19 1023.6 984.5
08 16.07 Ю 5 н/о н/о +17.6 +3.9 40 +17 +17 1024.0 984.9
09 16.07 Ю 4 н/о н/о +15.8 +4.2 46 +15 +15 1024.3 985.2
11 16.07 Ю 3 н/о н/о +13.1 +4.0 54 +12 +12 1025.3 986.2
12 16.07 ЮВ 4 н/о н/о +12.7 +4.2 56 +11 +11 1025.6 986.5
14 16.07 Ю 3 н/о н/о +9.6 +4.0 68 +8 +8 1025.4 986.3 +19.3
15 16.07 Ю 3 н/о н/о +9.3 +4.1 70 +7 +7 1025.2 986.1
17 16.07 Ю 2 н/о н/о +7.4 +3.8 78 +5 +5 1024.5 985.4
18 16.07 Ю 2 н/о н/о +6.9 +4.0 82 +5 +5 1024.3 985.2
20 16.07 Ю 3 н/о н/о +5.4 +3.6 88 +2 +2 1024.1 985.0
21 16.07 Ю 2 н/о н/о +5.3 +3.5 88 +3 +3 1024.3 985.2
23 16.07 Ю 4 н/о н/о +9.4 +4.8 73 +7 +7 1025.5 986.4
00 17.07 ЮВ 5 н/о н/о +12.4 +5.3 62 +10 +10 1026.3 987.1
03 17.07 ЮВ 5 н/о н/о +17.9 +4.5 41 +18 +18 1024.1 985.0

 

Местоположение метеостанции Джервойс (Северная территория, Австралия): широта -22.95 долгота 136.15 высота над уровнем моря 329 м.

В архиве по умолчанию представлена погода в Джервойсе за последнюю неделю. Архивные данные за месяц целиком и за предыдущие месяцы, начиная с января 2011 года, Вы можете получить, выбрав интересующий диапазон дат из раскрывающегося списка и нажав кнопку "Ввод!".


*Определитесь, кто Вы:
робот инопланетянин человек

Внимание! Время в таблицах - всемирное. Для получения местного времени необходимо прибавить поправку, которая равна 9.5 ч.

Смотрите также архив погоды в соседних городах и на ближайших метеорологических станциях:

Погода в Элис-Спрингсе (Северная территория, Австралия) (250 км)
Погода на Виноградной ферма (Северная территория, Австралия) (264 км)
Погода в Камоауиле (Квинсленд, Австралия) (394 км)
Погода в Фосфат-Хилл (Квинсленд, Австралия) (408 км)
Погода в Нью Мэй Даун (Квинсленд, Австралия) (421 км)
Погода в Теннант-Крике (Северная территория, Австралия) (422 км)
Погода на Маунт-Айза (Квинсленд, Австралия) (427 км)
Погода в Бердсвилле (Квинсленд, Австралия) (461 км)
Погода на Озере Джулиус (Квинсленд, Австралия) (486 км)
Погода в Аэропорту Трепелл (Квинсленд, Австралия) (502 км)

Пояснения к столбцам:

Ветер - указаны скорость ветра в м/с - средняя за 10 мин, порывы в срок и между сроками (в фигурных скобках) и направление, откуда дует ветер: С - северный, СВ - северо-восточный, В - восточный, ЮВ - юго-восточный, Ю - южный, ЮЗ - юго-западный, З - западный, СЗ - северо-западный.
Видимость - горизонтальная дальность видимости в метрах или километрах. При видимости от 1 до 10 км при отсутствии осадков обычно наблюдается дымка, при ухудшении видимости до 1 км и менее - туман. В сухую погоду видимость может ухудшаться дымом, пылью или мглою.
Явления - указаны атмосферные явления, наблюдавшиеся в срок или в последний час перед сроком; фигурными скобками обозначены явления, наблюдавшиеся между сроками (за 1-3 часа до срока); квадратными скобками обозначены град или гололедные отложения с указанием их диаметра в мм.
Облачность - указаны через наклонную черту общая и нижняя облачность в баллах и высота нижней границы облаков в метрах; квадратными скобками обозначены формы облаков: Ci - перистые, Cs - перисто-слоистые, Cc - перисто-кучевые, Ac - высококучевые, As - высокослоистые, Sc - слоисто-кучевые, Ns - слоисто-дождевые, Cu - кучевые, Cb - кучево-дождевые. Подробнее классификацию облаков см. в Атласе облаков (PDF).
T - Температура воздуха - температура, измеренная на высоте 2 м над землей.
Td - Температура точки росы - температура, при понижении до которой содержащийся в воздухе водяной пар достигнет насыщения.
f - Относительная влажность воздуха - влажноcть воздуха, измеренная на высоте 2 м над землей.
Te - Эффективная температура - температура, которую ощущает одетый по сезону человек в тени. Характеристика душности погоды. При расчете учитывается влияние влажности воздуха и скорости ветра на теплоощущения человека.
Tes - Эффективная температура на солнце - температура, которую ощущает человек, с поправкой на солнечный нагрев. Характеристика знойности погоды. Зависит от высоты солнца над горизонтом, облачности и скорости ветра. Ночью, в пасмурную погоду, а также при ветре 12 м/с и более поправка равна нулю.
P - Атмосферное давление - приведенное к уровню моря атмосферное давление.
Po - Атмосферное давление - измеренное на уровне метеостанции атмосферное давление.
Tmin - Минимальная температура - минимум температуры воздуха на высоте 2 м над землей.
Tmax - Максимальная температура - максимум температуры воздуха на высоте 2 м над землей.
R - Количество осадков - Количество выпавших осадков за период времени, мм. При наведении курсора мыши на число - период времени, за который выпало указанное количество осадков.
R24 - Количество осадков - Количество выпавших осадков за 24 часа, мм.
S - Снежный покров - Высота снежного покрова, см. При наведении курсора мыши на число - состояние снежного покрова и степень покрытия местности в баллах.